Regional Weather Roundup
Issued by NWS

Home | Current Version | Previous Version | Text Only | Print | Product List | Glossary Off
Versions: 1 2 3 4 5 6 7 8 9 10 11 12 13 14 15 16 17 18 19 20 21 22 23 24 25 26 27 28 29 30 31 32 33 34 35 36 37 38 39 40 41 42 43 44 45 46 47 48 49 50

000
ASUS43 KDMX 061608
RWRIA

WEATHER ROUNDUP FOR IOWA
NATIONAL WEATHER SERVICE DES MOINES IA
1000 AM CST SAT FEB 06 2016

NOTE: "FAIR" INDICATES FEW OR NO CLOUDS BELOW 12,000 FEET WITH NO
SIGNIFICANT WEATHER AND/OR OBSTRUCTIONS TO VISIBILITY.

* - THESE STATIONS ARE NOT NWS STATIONS...THUS NOT UNDER NWS
QUALITY CONTROL.  THEY ALSO DO NOT REPORT WEATHER SUCH
AS PRECIPITATION OR FOG.

IAZ001>003-012>014-020>022-031>034-043>046-061700-
   NORTHWEST IOWA

CITY           SKY/WX    TMP DP  RH WIND       PRES   REMARKS
CARROLL *      FOG       28  28 100 SW15      30.19F VSB 1/4 WCI  17
CHEROKEE *     CLOUDY    27  27 100 SW8       30.15S FOG     WCI  18
DENISON *      FOG       28  28 100 SW10      30.17F VSB 1/4 WCI  19
LE MARS *      SUNNY     23  23 100 S10       30.16R WCI  12
ORANGE CITY *  SUNNY     21  19  93 CALM      30.12R
SHELDON *      SUNNY     23  23 100 S14       30.10S WCI  11
SIOUX CITY     SUNNY     23  18  81 SE8       30.17S WCI  14
SPENCER        HAZE      28  23  81 SW8       30.13S VSB 1/2 WCI  20
STORM LAKE *   FOG       27  27 100 MISG      30.13F VSB 0
$$

IAZ055>058-069>071-079>083-090>094-061700-
   SOUTHWEST IOWA

CITY           SKY/WX    TMP DP  RH WIND       PRES   REMARKS
ATLANTIC *     FOG       28  28 100 SW9       30.23F VSB 0   WCI  20
AUDUBON *      FOG       28  27  93 SW7       30.22S VSB 1/4 WCI  21
CLARINDA *     CLOUDY    32  30  93 W6        30.29S WCI  26
COUNCIL BLFS * FOG       27  28 100 S9        30.22F VSB 0   WCI  17
CRESTON *      CLOUDY    30  30 100 W12       30.25S FOG     WCI  21
HARLAN  *      FOG       28  28 100 SW8       30.25F VSB 0   WCI  20
LAMONI         FOG       28  27  96 W7        30.26R VSB 1/4 WCI  21
RED OAK *      CLOUDY    30  30 100 SW8       30.26S FOG     WCI  23
SHENANDOAH *   CLOUDY    30  30 100 CALM      30.28S
$$

IAZ047>049-059>061-072>074-084-061700-
   CENTRAL IOWA

CITY           SKY/WX    TMP DP  RH WIND       PRES   REMARKS
AMES           CLOUDY    29  27  92 W8        30.22S FOG     WCI  21
ANKENY *       CLOUDY    30  30 100 SW5       30.23F FOG     WCI  25
BOONE *        CLOUDY    28  27  93 SW9       30.20R FOG     WCI  20
CHARITON *     FOG       27  27 100 VRB5      30.25S VSB 0   WCI  21
DES MOINES     CLOUDY    30  27  88 W5        30.24S FOG     WCI  25
GRINNELL*      CLOUDY    32  28  86 SW6       30.23S WCI  26
KNOXVILLE *    CLOUDY    28  27  93 W8        30.23S FOG     WCI  20
MARSHALLTOWN   CLOUDY    29  27  92 SW9       30.21S FOG     WCI  20
NEWTON *       CLOUDY    30  30 100 SW9       30.23R FOG     WCI  22
PELLA *        MOSUNNY   30  27  86 W5        30.25S WCI  25
$$

IAZ004>006-015-016-023>025-035-036-061700-
   NORTH CENTRAL IOWA

CITY           SKY/WX    TMP DP  RH WIND       PRES   REMARKS
ALGONA *       FOG       25  25 100 S16       30.14F VSB 0   WCI  12
CLARION *      FOG       27  27 100 SW14      30.18R VSB 0   WCI  15
ESTHERVILLE    CLOUDY    25  25 100 S13       30.11F FOG     WCI  14
FORT DODGE *   CLOUDY    27  25  93 SW10      30.19S VSB 1/4 WCI  17
MASON CITY     FOG       25  25 100 SW12      30.17F VSB 1/4 WCI  14
FOREST CITY *  FOG       27  27 100 SW10      30.16S VSB 1/4 WCI  17
WEBSTER CITY * FOG       28  28 100 SW10      30.18R VSB 0   WCI  19
IOWA FALLS *   CLOUDY    28  28 100 SW10      30.20F FOG     WCI  19
$$

IAZ007>011-017>019-026>030-037>042-050>054-066-061700-
   NORTHEAST IOWA

CITY           SKY/WX    TMP DP  RH WIND       PRES   REMARKS
CEDAR RAPIDS   CLOUDY    30  28  92 W7        30.23S FOG     WCI  23
CHARLES CITY * CLOUDY    27  27 100 SW10      30.18S FOG     WCI  17
CLINTON *      SUNNY     35  24  64 SW10      30.25F WCI  27
DECORAH *      CLOUDY    28  27  93 VRB6G15   30.16R WCI  22
DUBUQUE        CLOUDY    29  26  89 W12       30.21S WCI  19
MONTICELLO *   CLOUDY    30  28  93 W9        30.22F WCI  22
OELWEIN *      CLOUDY    30  30 100 SW9       30.19S FOG     WCI  22
WATERLOO       CLOUDY    29  26  89 SW12      30.20F WCI  19
$$

IAZ064-065-067-068-078-061700-
   EAST CENTRAL IOWA

CITY           SKY/WX    TMP DP  RH WIND       PRES   REMARKS
DAVENPORT      SUNNY     34  23  64 SW10      30.25S WCI  26
IOWA CITY      CLOUDY    30  24  78 SW5       30.27S WCI  25
MT. PLEASANT * SUNNY     36  25  64 W7        30.27R WCI  30
MUSCATINE *    SUNNY     36  23  60 W8        30.28R WCI  29
QUAD CITIES    SUNNY     36  22  56 W7        30.26R WCI  30
$$

IAZ062-063-075>077-085>089-095>099-061700-
   SOUTHEAST IOWA

CITY           SKY/WX    TMP DP  RH WIND       PRES   REMARKS
BURLINGTON     SUNNY     34  25  69 SW6       30.26R WCI  29
FAIRFIELD *    SUNNY     34  25  69 W5        30.26S WCI  30
FORT MADISON * SUNNY     36  25  64 SW3       30.27R
KEOKUK *       SUNNY     36  23  60 SW7       30.26S WCI  30
OSKALOOSA *      N/A     32  27  80 W7        30.25F WCI  26
CENTERVILLE *    N/A    N/A N/A N/A MISG        N/A
OTTUMWA        SUNNY     32  27  81 SW5       30.25S WCI  27
WASHINGTON *   CLOUDY    32  25  74 SW3       30.27F
$$

ABBREVIATIONS USED IN REMARKS
   TC - TEMPERATURES IN CELSIUS
  WCI - WIND CHILL INDEX
   HX - HEAT INDEX
  VSB - VISIBILITY
$$




USA.gov is the U.S. government's official web portal to all federal, state and local government web resources and services.